Location: Naloco
(16.5478°S, 37.1017°E)
Time: 02:58:49
(UTC+00:00)

NOSS 3-2 (C) - Pass Details

Date: 13 August 2020
Orbit: 793 x 1419 km, 63.4° (Epoch: 21 September)

Event Time Altitude Azimuth Distance (km) Brightness Sun altitude
Rises 15:43:36 0° 198° (SSW) 3,527 6.5 -5.7°
Reaches altitude 10° 15:46:17 10° 192° (SSW) 2,512 5.7 -6.4°
Maximum altitude 15:51:48 51° 117° (ESE) 1,019 3.3 -7.7°
Drops below altitude 10° 15:56:58 10° 41° (NE) 2,351 5.2 -8.9°
Sets 15:59:24 0° 36° (NE) 3,279 6.0 -9.4°
